Starlink 11084

operational
NORAD ID: 59717 Int'l Des: 2024-088 Owner: SPXS Country: US Constellation: starlink
LEOCIRCULAR

关于 Starlink 11084

正在加载描述...

实时位置

正在加载3D地球...

即将过境

高度历史

Altitude vs Time

uPlot chart will show altitude changes over time

两行轨道根数

1 59717U 24088K 25352.31652682 -.00000328 00000-0 21550-5 0 9993
2 59717 53.1589 7.2632 0001203 84.6666 275.4489 15.69717899 93490
Epoch: Dec 18, 2025 • Age: 9 hours

当前状态

高度 374.4 km
速度 7.68 km/s
星下点 -42.28°S, 12.61°W
发射日期 May 10, 2024
运行时间 1.6 years
类型 internet

技术详情

分类 Payload
质量 960.00 kg
干质量 910.00 kg
总质量 960.00 kg
长度 0.30 m
直径 4.10 m
跨度 29.00 m
形状 Box + pan
制造商 SPXS
平台类型 Starlink V2MD
阶段状态 In Orbit
所有者/国家 SPXS/US

大型星座

Loading constellations...